Volver al catálogo

SPIN 2

ActivoCienciaSSO
NORAD 66690·PAYLOAD·🇱🇺 Luxembourg
Este nombre de satélite aún no ha sido confirmado por fuentes oficiales.

Lanzado Nov 28, 2025 desde Vandenberg Space Force Base

Loading…

Próximos Pases (próximas 24 horas)

TLE

ActualizadoSource: Space-Track

Época: Sep 14, 2026, 04:29 UTC

1 66690U 25276AA  26257.18704743  .00003013  00000-0  14432-3 0  9999
2 66690  97.4108 328.9207 0006010  59.8596 300.3234 15.19686271 43927

Sigue SPIN 2 en tiempo real con AllMySat

Download on the App Store